Regional Weather Roundup
Issued by NWS

Home | Current Version | Previous Version | Graphics & Text | Print | Product List | Glossary On
Versions: 1 2 3 4 5 6 7 8 9 10 11 12 13 14 15 16 17 18 19 20 21 22 23 24 25 26 27 28 29 30 31 32 33 34 35 36 37 38 39 40 41 42 43 44 45 46 47 48 49 50
000
ASUS43 KDMX 030907
RWRIA

WEATHER ROUNDUP FOR IOWA
NATIONAL WEATHER SERVICE DES MOINES IA
300 AM CST TUE MAR 03 2015

NOTE: "FAIR" INDICATES FEW OR NO CLOUDS BELOW 12,000 FEET WITH NO
SIGNIFICANT WEATHER AND/OR OBSTRUCTIONS TO VISIBILITY.

* - THESE STATIONS ARE NOT NWS STATIONS...THUS NOT UNDER NWS
QUALITY CONTROL.  THEY ALSO DO NOT REPORT WEATHER SUCH
AS PRECIPITATION OR FOG.

IAZ001>003-012>014-020>022-031>034-043>046-031000-
   NORTHWEST IOWA

CITY           SKY/WX    TMP DP  RH WIND       PRES   REMARKS
CARROLL *      CLOUDY    28  23  80 S8        29.78F WCI  20
CHEROKEE *     CLOUDY    27  23  86 SE7       29.77F WCI  19
DENISON *      CLOUDY    30  25  80 S12       29.75F WCI  21
LE MARS *      CLOUDY    28  23  80 SE8       29.76F WCI  20
ORANGE CITY *  CLOUDY    27  21  80 S7        29.75F WCI  19
SHELDON *      CLOUDY    25  21  86 SE13      29.74F WCI  13
SIOUX CITY     CLOUDY    30  21  69 SE9       29.75F WCI  22
SPENCER        CLOUDY    26  19  74 SE10      29.77  WCI  16
STORM LAKE *   CLOUDY    25  21  86 SE13      29.76F WCI  13
$$

IAZ055>058-069>071-079>083-090>094-031000-
   SOUTHWEST IOWA

CITY           SKY/WX    TMP DP  RH WIND       PRES   REMARKS
ATLANTIC *     CLOUDY    30  23  74 S7        29.78F WCI  23
AUDUBON *      PTCLDY    30  21  69 S10G20    29.78F WCI  21
CLARINDA *     MIX PCPN  32  28  86 S12       29.79F WCI  23
COUNCIL BLFS * CLOUDY    30  25  80 S13       29.74F WCI  20
CRESTON *      MIX PCPN  30  27  86 S14G22    29.80F WCI  20
HARLAN  *      CLOUDY    30  27  86 S9G16     29.81F WCI  22
LAMONI         MIX PCPN  30  25  81 S15G23    29.83F WCI  19
RED OAK *      CLOUDY    32  25  74 SE10G17   29.77F WCI  24
SHENANDOAH *   CLOUDY    32  27  80 S9        29.79F WCI  24
$$

IAZ047>049-059>061-072>074-084-031000-
   CENTRAL IOWA

CITY           SKY/WX    TMP DP  RH WIND       PRES   REMARKS
AMES           CLOUDY    27  20  75 SE10      29.85F WCI  17
ANKENY *       CLOUDY    30  23  74 SE10      29.84F WCI  21
CHARITON *     CLOUDY    30  25  80 S18       29.84F WCI  18
DES MOINES     CLOUDY    30  21  69 SE14      29.83F WCI  19
GRINNELL*      MIX PCPN  28  23  80 SE18G24   29.87F WCI  16
KNOXVILLE *    LGT RAIN  28  23  80 SE13G20   29.85F WCI  18
MARSHALLTOWN   CLOUDY    26  21  81 SE15      29.84F WCI  14
PELLA *        LGT SNOW  30  27  86 SE12G22   29.89F WCI  21
PERRY *          N/A     28  25  86 SE12      29.81F WCI  18
$$

IAZ004>006-015-016-023>025-035-036-031000-
   NORTH CENTRAL IOWA

CITY           SKY/WX    TMP DP  RH WIND       PRES   REMARKS
ALGONA *       CLOUDY    25  21  86 SE15      29.81F WCI  12
CLARION *      CLOUDY    25  23  93 SE17G23   29.82F WCI  11
ESTHERVILLE    CLOUDY    23  19  85 SE12      29.79F WCI  12
FORT DODGE *   CLOUDY    27  18  69 SE8       29.82F WCI  18
MASON CITY     CLOUDY    23  18  81 SE13      29.86F WCI  11
FOREST CITY *  CLOUDY    25  19  80 SE15      29.83F WCI  12
IOWA FALLS *   CLOUDY    25  21  86 SE13      29.85F WCI  13
$$

IAZ007>011-017>019-026>030-037>042-050>054-066-031000-
   NORTHEAST IOWA

CITY           SKY/WX    TMP DP  RH WIND       PRES   REMARKS
CEDAR RAPIDS   LGT SNOW  25  22  88 SE14      29.92F VSB 3/4 WCI  13
CHARLES CITY * CLOUDY    25  21  86 SE15      29.88F WCI  12
CLINTON *      CLOUDY    25  19  80 SE15G21   30.04F WCI  12
DECORAH *      CLOUDY    23  18  80 SE9       29.90F WCI  13
DUBUQUE        CLOUDY    24  18  77 S16       29.98F WCI  11
MONTICELLO *   MIX PCPN  25  21  86 SE13      29.97F WCI  13
OELWEIN *      CLOUDY    25  19  80 SE15      29.92F WCI  12
WATERLOO       CLOUDY    25  19  78 SE13      29.89F WCI  14
$$

IAZ064-065-067-068-078-031000-
   EAST CENTRAL IOWA

CITY           SKY/WX    TMP DP  RH WIND       PRES   REMARKS
DAVENPORT      LGT SNOW  25  20  81 SE15      30.01F WCI  13
IOWA CITY      LGT SNOW  26  23  88 SE10      29.97F FOG     WCI  16
MT. PLEASANT * MIX PCPN  27  23  86 SE12      29.97F WCI  16
MUSCATINE *    CLOUDY    28  25  86 SE9       30.01F HAZE    WCI  20
QUAD CITIES    CLOUDY    26  21  81 SE13      30.01F HAZE    WCI  15
$$

IAZ062-063-075>077-085>089-095>099-031000-
   SOUTHEAST IOWA

CITY           SKY/WX    TMP DP  RH WIND       PRES   REMARKS
BURLINGTON     CLOUDY    28  24  85 SE10      29.95F WCI  19
FAIRFIELD *    LGT RAIN  28  25  86 SE13      29.94F WCI  18
FORT MADISON * CLOUDY    27  23  86 S12G18    30.01F WCI  16
KEOKUK *       CLOUDY    30  25  80 S8        29.99F WCI  23
OSKALOOSA *    MIX PCPN  28  25  86 SE17      29.92F WCI  16
CENTERVILLE *  CLOUDY    28  25  86 SE15      29.91F WCI  17
OTTUMWA        FRZ RAIN  29  23  78 SE13      29.93F WCI  19
WASHINGTON *   MIX PCPN  30  30 100 S17       29.94F WCI  18
$$

ABBREVIATIONS USED IN REMARKS
   TC - TEMPERATURES IN CELSIUS
  WCI - WIND CHILL INDEX
   HX - HEAT INDEX
  VSB - VISIBILITY
$$




USA.gov is the U.S. government's official web portal to all federal, state and local government web resources and services.